Location: Newark
(50.0306°N, 2.3272°E)
Time: 08:55:28
(UTC+00:00)

Transit 2A Rocket - Pass Details

Date: 08 December 2019
Orbit: 593 x 910 km, 66.7° (Epoch: 17 January)

Event Time Altitude Azimuth Distance (km) Brightness Sun altitude
Rises 17:38:51 0° 229° (SW) 2,945 9.2 -16.7°
Reaches altitude 10° 17:41:13 10° 234° (SW) 2,003 8.3 -17.0°
Maximum altitude 17:45:36 53° 312° (NW) 748 5.1 -17.7°
Enters shadow 17:48:12 22° 21° (NNE) 1,328 5.9 -18.1°
Drops below altitude 10° 17:49:50 10° 30° (NNE) 1,939 - -18.4°
Sets 17:52:07 0° 35° (NE) 2,843 - -18.7°
